Location: Newark
(48.1500°N, 2.9667°W)
Time: 17:53:04
(UTC+00:00)

Envisat - Visible Passes

Search period start: 11 December 2019 00:00
Search period end: 21 December 2019 00:00
Orbit: 764 x 766 km, 98.1° (Epoch: 11 December)

Date Brightness Start Highest point End Pass type
(mag) Time Alt. Az. Time Alt. Az. Time Alt. Az.
11 Dec 6.0 05:45:26 10° NE 05:48:31 16° E 05:51:36 10° SE visible
11 Dec 3.7 17:03:00 10° SE 17:07:24 31° ENE 17:11:50 10° N visible
11 Dec 4.3 18:41:32 10° SSW 18:46:18 41° W 18:51:07 10° NNW visible
12 Dec 3.9 06:46:19 10° NNE 06:51:19 53° E 06:56:17 10° S visible
12 Dec 3.0 18:04:21 10° SSE 18:09:25 84° WSW 18:14:33 10° NNW visible
12 Dec 6.1 19:47:21 10° WSW 19:49:14 12° W 19:51:09 10° WNW visible
13 Dec 5.3 06:10:03 10° NE 06:14:19 26° E 06:18:32 10° SSE visible
13 Dec 3.2 17:27:51 10° SE 17:32:44 49° ENE 17:37:37 10° N visible
13 Dec 5.2 19:07:51 10° SSW 19:12:00 25° W 19:16:10 10° NW visible
14 Dec 6.1 05:34:52 10° ENE 05:37:05 13° E 05:39:18 10° ESE visible
14 Dec 3.1 07:11:44 10° NNE 07:16:51 88° E 07:21:57 10° SSW visible
14 Dec 3.9 16:52:06 10° ESE 16:56:14 26° ENE 17:00:21 10° N visible
14 Dec 3.9 18:30:03 10° S 18:34:59 50° W 18:39:56 10° NNW visible
15 Dec 4.4 06:35:08 10° NNE 06:39:59 43° E 06:44:49 10° S visible
15 Dec 2.9 17:53:04 10° SSE 17:58:08 80° ENE 18:03:15 10° NNW visible
15 Dec 5.9 19:34:55 10° WSW 19:37:48 15° W 19:40:42 10° NW visible
16 Dec 5.6 05:59:03 10° NE 06:02:55 21° E 06:06:45 10° SE visible
16 Dec 3.4 17:16:48 10° SE 17:21:31 40° ENE 17:26:14 10° N visible
16 Dec 4.8 18:56:10 10° SSW 19:00:37 30° W 19:05:07 10° NNW visible
17 Dec 3.4 07:00:28 10° NNE 07:05:35 72° ESE 07:10:39 10° S visible
17 Dec 3.5 18:18:38 10° S 18:23:39 63° W 18:28:43 10° NNW visible
18 Dec 4.8 06:23:59 10° NNE 06:28:39 35° E 06:33:15 10° SSE visible
18 Dec 2.9 17:41:52 10° SSE 17:46:53 65° ENE 17:51:56 10° N visible
18 Dec 5.6 19:22:51 10° SW 19:26:22 19° W 19:29:55 10° NW visible
19 Dec 5.9 05:48:10 10° NE 05:51:30 17° E 05:54:50 10° SE visible
19 Dec 3.6 17:05:48 10° SE 17:10:18 33° ENE 17:14:49 10° N visible
19 Dec 4.5 18:44:34 10° SSW 18:49:16 37° W 18:53:59 10° NNW visible
20 Dec 3.7 06:49:14 10° NNE 06:54:16 58° E 06:59:16 10° S visible
20 Dec 3.1 18:07:16 10° S 18:12:21 78° WSW 18:17:28 10° NNW visible
20 Dec 6.2 19:50:57 10° W 19:52:15 11° W 19:53:31 10° WNW visible
